Temperature
25 25 24 25 28 29 30 32 34 32 31 31 31 31 30 28 27 24 23 23 22 21 21 21 20 19 19 19 19 19 19 19 18 18 18 18 18 18 18 18 18 18 18 18 18 18 18 18 18
24 24 25 27 28 29 31 34 32 29 29 31 31 31 30 28 25 23 22 22 21 21 20 20 20 19 19 19 19 18 18 18 18 18 18 18 18 18 18 18 18 18 18 18 18 18 18 18 18
24 24 26 28 29 30 32 34 31 30 30 31 31 30 29 27 25 23 22 22 21 20 19 20 20 19 19 19 19 19 19 19 19 18 18 18 18 18 18 18 18 18 18 17 17 17 18 18 18
23 25 27 29 29 32 33 33 32 31 31 31 31 30 28 27 25 23 22 22 21 20 20 20 20 20 19 19 19 19 19 19 19 19 18 18 18 18 18 18 18 18 17 17 17 17 18 18 18
24 27 28 29 31 34 34 33 32 32 32 32 31 29 27 26 24 23 23 22 22 20 20 20 20 20 19 19 19 19 19 19 19 19 18 18 18 18 18 18 18 17 17 17 17 17 18 18 18
26 28 28 30 32 34 34 33 33 32 32 32 31 30 27 25 24 24 23 23 22 21 20 21 20 20 19 19 19 18 18 18 18 18 18 18 18 18 18 17 17 17 17 18 18 18 18 18 18
27 29 29 31 32 33 34 33 31 32 32 32 31 30 27 25 25 24 23 23 22 21 20 21 20 20 19 19 19 19 18 18 18 18 18 18 18 18 17 17 17 17 17 18 18 18 18 18 18
27 29 29 31 32 33 34 32 30 28 28 31 31 31 27 25 24 24 23 23 22 21 20 20 20 20 19 19 19 18 18 18 18 18 18 17 17 17 17 17 17 17 18 18 18 18 18 18 18
27 28 29 31 33 33 34 33 30 28 27 28 31 30 27 25 25 24 24 23 22 22 20 19 19 19 19 19 19 18 18 18 18 18 17 17 17 17 17 17 17 17 17 17 17 17 18 18 18
28 28 30 33 34 34 34 33 32 29 28 28 30 29 27 25 25 25 24 23 22 22 21 20 20 19 18 18 19 18 18 18 17 17 17 17 17 17 17 17 17 17 17 17 17 17 18 18 17
30 29 31 33 33 33 33 34 33 32 31 30 29 27 26 26 25 25 25 24 23 22 21 21 20 20 18 19 19 18 18 18 17 17 17 17 17 17 17 17 17 18 17 17 17 18 18 18 17
30 31 32 32 33 32 33 33 33 33 32 31 29 26 24 26 26 26 26 25 23 22 22 21 21 20 20 20 20 19 18 18 18 17 17 17 17 17 18 17 17 18 17 18 18 18 18 17 17
31 31 31 32 32 32 32 33 33 33 32 31 30 27 25 26 27 27 27 25 24 23 22 22 21 20 20 20 20 20 19 18 18 18 17 17 17 17 18 18 18 18 18 18 18 18 17 17 17
31 31 31 31 31 32 32 33 33 33 32 31 31 28 27 27 28 27 26 24 23 22 22 22 21 20 20 20 20 20 19 19 18 18 17 17 17 17 17 17 17 17 17 17 17 17 17 16 16
31 31 31 31 31 31 32 32 33 33 33 32 31 30 29 28 28 27 26 24 22 21 21 21 20 19 19 19 19 19 19 19 18 18 17 17 17 17 17 17 16 16 16 16 16 16 16 16 16
31 30 29 31 31 31 31 31 33 33 33 32 32 31 30 29 28 27 25 23 22 21 20 21 20 19 19 19 19 19 19 19 18 17 17 17 17 17 16 16 16 16 15 15 15 15 15 15 15
29 28 29 30 32 32 31 31 33 33 33 32 31 31 30 29 28 26 24 22 21 20 20 21 20 19 19 18 18 18 18 18 17 17 17 17 17 16 16 16 16 15 15 15 15 14 14 14 14
28 29 29 30 32 32 32 32 32 33 32 32 31 31 30 29 28 25 23 21 20 20 20 20 20 19 19 18 18 17 17 17 17 17 17 16 16 16 15 15 15 15 15 14 14 13 13 13 13
29 29 30 31 33 32 32 31 32 32 32 31 31 31 30 29 27 24 22 20 19 19 19 19 19 19 18 18 17 17 17 16 16 16 16 16 16 15 15 15 15 14 14 13 13 13 13 13 12
29 29 29 30 32 31 31 31 31 32 31 31 31 31 30 29 26 22 21 19 18 18 18 18 19 18 18 17 17 16 16 15 15 15 15 15 14 14 14 14 14 14 13 12 12 11 11 11 10
29 29 29 29 30 31 30 30 30 31 31 31 31 30 30 29 26 22 20 19 19 18 17 18 18 18 17 17 16 16 15 15 15 14 14 14 14 14 14 13 13 13 12 11 10 10 9 8 9
28 29 29 29 28 28 29 28 29 30 30 31 31 31 30 29 27 23 20 19 19 18 17 17 17 17 16 16 16 16 15 14 14 13 13 13 13 13 12 12 12 11 10 9 9 8 8 7 7
28 29 29 28 28 27 28 27 28 30 30 31 31 31 30 29 27 23 20 18 18 18 17 17 16 16 16 15 15 15 14 13 13 12 12 12 11 11 11 9 9 8 8 8 7 7 7 6 6
29 28 28 28 27 26 27 27 27 29 30 31 31 31 30 29 25 21 18 17 17 17 16 16 16 15 15 14 14 14 13 13 12 12 12 11 11 10 9 8 7 7 7 7 6 6 6 6 5
28 26 25 25 25 25 27 27 28 30 31 31 31 29 28 26 21 18 17 16 16 16 15 15 14 14 14 13 13 13 13 13 12 12 11 11 10 9 8 8 7 7 6 6 6 6 6 5 5
27 26 24 24 25 26 28 28 29 31 31 30 28 24 22 20 17 16 15 15 15 15 14 14 13 13 12 12 12 13 12 12 11 11 10 10 10 9 8 7 7 6 6 6 6 6 6 6 5
27 27 27 26 25 25 26 28 29 30 30 30 27 21 18 16 15 15 14 14 14 14 14 13 12 12 11 12 12 12 11 11 11 11 10 9 9 8 7 7 6 6 6 6 6 5 5 6 5
28 28 27 26 24 23 25 26 28 29 29 29 24 18 15 14 14 13 13 13 13 13 12 12 11 11 11 11 11 11 11 11 10 9 9 8 7 7 7 7 6 6 6 6 6 6 6 6 5
27 27 26 26 26 24 24 26 28 28 28 25 21 17 15 14 13 12 12 12 12 12 12 11 11 11 11 10 10 10 10 9 8 7 7 7 7 6 6 6 6 6 6 6 6 6 6 5 5
28 27 27 25 24 25 24 25 28 27 27 25 22 17 15 13 12 12 11 11 11 11 11 11 10 10 10 10 9 9 8 8 7 7 7 7 6 6 6 6 6 6 6 6 6 5 5 5 4
Wind_Speed
9 13 11 9 8 10 18 20 2 15 11 13 14 14 19 18 13 10 9 14 21 19 18 17 16 15 14 14 15 15 16 16 16 15 15 14 12 11 10 9 9 9 9 8 9 10 10 9 8
11 12 9 6 10 15 18 10 16 19 8 7 13 16 19 16 15 12 11 12 19 18 17 17 17 15 13 13 14 14 15 15 15 15 14 13 12 11 10 9 9 8 9 9 9 10 9 8 6
12 13 6 8 15 17 13 8 20 18 14 8 14 17 16 11 13 11 13 12 16 15 18 20 18 16 14 13 14 14 15 15 15 14 13 12 11 10 9 9 9 10 10 10 10 10 8 7 5
7 8 7 10 19 21 6 9 16 15 11 10 12 13 14 11 12 14 15 14 15 17 19 19 19 16 14 13 13 14 15 15 14 13 12 11 10 9 8 8 9 10 10 9 10 9 8 7 5
10 8 12 15 19 13 6 8 10 13 11 11 12 18 13 15 20 17 14 15 14 16 19 18 18 16 14 13 13 13 13 13 13 11 10 9 8 8 7 8 10 10 10 10 10 9 7 6 4
9 8 13 16 18 5 6 9 10 10 10 11 12 18 12 14 17 16 14 12 13 16 18 17 17 15 14 13 13 12 11 11 11 10 8 7 6 6 6 8 9 9 9 9 8 7 5 3 1
12 12 17 19 12 6 7 8 7 8 8 10 12 16 13 15 16 15 14 12 13 17 17 15 15 14 14 14 14 13 11 10 10 9 8 7 7 7 7 8 8 9 9 8 6 5 3 2 2
13 13 19 18 9 6 8 9 8 5 3 4 7 8 16 18 17 16 15 12 12 15 17 15 16 15 14 14 14 13 12 11 11 9 9 8 8 8 8 9 10 10 9 7 6 4 4 5 5
16 14 17 18 7 5 8 9 12 16 6 14 2 11 24 23 20 17 16 14 11 13 15 15 14 14 15 15 14 14 13 13 13 11 10 9 9 10 10 10 12 10 10 9 8 8 8 9 10
15 16 20 14 4 1 5 9 12 17 19 15 7 17 24 22 20 18 17 17 15 13 13 15 15 14 14 15 15 14 14 14 14 12 12 10 8 9 10 13 13 13 13 11 11 11 11 12 11
19 21 20 13 6 7 8 6 11 14 15 15 10 16 17 21 20 17 17 17 18 15 13 15 15 13 11 11 14 13 13 14 13 13 13 12 12 12 11 11 12 12 13 12 13 12 12 5 3
21 21 19 15 7 5 13 14 10 13 9 7 12 15 9 16 20 17 16 16 18 16 13 15 13 11 11 8 8 8 9 10 8 10 8 8 5 5 8 9 12 12 11 9 9 8 6 4 2
19 19 18 15 12 11 16 17 13 12 7 4 14 25 22 19 18 16 16 17 16 13 10 10 10 9 6 5 2 4 6 8 12 11 7 5 2 1 2 3 5 7 6 4 4 7 6 4 5
18 20 18 17 16 15 17 16 17 12 11 11 10 22 23 19 17 17 17 17 16 11 8 8 8 10 8 5 2 4 6 6 10 9 9 5 7 6 4 4 6 7 9 9 7 7 5 4 5
20 20 17 17 17 18 19 18 20 15 11 11 10 13 20 17 14 16 18 17 17 12 9 8 8 11 9 8 6 4 6 7 5 9 11 10 9 5 3 3 4 5 7 9 8 8 6 4 5
18 19 20 18 19 21 22 21 18 15 14 10 10 11 13 13 16 17 18 16 16 13 11 10 11 13 10 8 6 4 6 8 8 11 12 12 9 7 6 5 5 7 9 9 5 6 7 6 6
18 19 21 22 23 24 24 21 18 16 11 10 10 11 13 13 15 18 20 17 15 12 11 10 10 15 12 8 7 6 8 8 9 11 11 11 9 9 9 7 6 8 7 6 6 6 5 6 6
18 20 22 24 22 24 26 21 16 14 10 12 12 11 12 15 14 19 20 17 13 11 9 9 10 13 12 10 8 7 9 8 9 9 10 11 11 11 8 9 8 7 5 4 3 2 3 4 5
22 23 22 19 19 22 22 19 15 14 12 15 14 13 12 13 15 21 19 17 14 10 8 8 10 12 11 10 9 9 8 8 8 8 12 13 12 11 10 6 4 3 4 2 2 2 5 5 5
22 22 22 18 17 14 12 15 15 16 18 15 16 15 12 12 17 21 19 17 15 12 9 7 8 10 10 9 8 7 8 8 9 8 9 11 10 9 9 5 3 4 1 2 1 4 3 5 5
19 18 17 17 18 19 19 19 16 16 22 22 17 17 18 12 19 23 21 17 15 13 10 8 8 8 9 11 10 10 9 9 8 8 6 6 8 9 8 5 5 4 4 5 4 4 5 4 6
15 14 15 17 17 17 19 19 18 20 24 24 24 21 19 17 16 22 21 17 14 12 10 8 8 8 10 11 12 12 10 8 8 7 6 6 7 7 7 6 6 4 4 4 5 8 4 4 5
15 14 15 16 16 18 18 20 20 19 19 18 19 20 19 17 15 20 19 15 12 12 10 10 10 9 8 8 10 9 8 8 6 7 6 5 7 6 6 7 6 2 2 6 4 4 3 4 5
13 14 14 14 14 18 19 21 21 19 20 18 17 15 16 16 16 20 18 15 12 10 11 11 10 9 8 9 8 9 9 8 8 6 6 4 6 6 6 6 3 1 3 4 2 3 3 2 1
13 12 11 13 15 19 21 21 20 18 18 14 7 2 1 15 21 20 19 16 12 11 12 12 12 10 9 9 9 9 8 8 7 5 4 0 3 8 5 5 2 2 2 1 1 1 2 3 3
14 14 13 13 14 14 13 12 12 9 4 1 5 15 20 20 19 18 17 16 14 13 13 13 12 12 10 9 8 7 5 5 6 5 4 4 5 7 5 4 3 0 2 2 3 3 5 3 3
17 15 16 16 18 17 15 18 16 10 9 8 7 17 19 19 18 18 17 16 15 13 11 12 13 11 10 9 7 6 7 9 9 5 3 5 4 4 4 2 1 1 2 3 2 5 5 5 6
17 16 12 15 14 15 16 16 12 11 7 5 11 17 16 17 17 17 16 15 13 11 10 11 11 11 10 8 6 7 7 7 5 5 7 5 4 5 1 1 1 2 3 4 5 5 6 6 6
16 18 16 13 12 14 15 11 4 5 5 6 13 14 13 15 15 15 14 14 12 10 10 11 13 11 9 7 7 7 6 5 4 4 5 4 3 1 2 2 4 4 5 6 6 7 8 8 8
16 17 16 14 15 16 16 14 6 7 9 4 12 18 15 13 13 13 14 12 11 11 11 11 11 10 8 7 7 6 5 4 4 5 5 4 2 1 3 4 5 6 7 7 7 7 7 8 9
Wind_Direction
244 257 258 270 254 247 255 258 124 80 60 66 63 66 62 48 52 97 98 94 104 110 118 118 112 110 109 108 110 113 115 117 118 118 117 117 115 111 106 98 93 96 102 108 112 109 104 99 92
255 250 257 252 251 249 254 237 94 90 89 110 87 73 71 66 81 105 116 116 114 119 130 126 118 113 111 111 112 113 114 114 114 115 116 118 117 114 110 104 101 101 100 104 112 115 114 109 102
256 255 255 243 246 254 282 107 108 120 172 141 91 71 68 81 93 113 126 134 116 116 119 127 128 125 124 122 120 121 120 121 121 122 122 119 117 114 113 111 108 104 106 114 120 120 117 111 106
239 223 234 244 247 243 257 96 120 142 161 121 105 91 84 89 103 117 138 137 121 122 124 133 135 134 133 132 132 132 131 131 128 127 126 125 126 126 124 120 114 111 114 118 115 110 108 104 92
237 245 238 250 250 246 142 124 148 148 141 131 114 109 102 91 103 122 136 132 132 131 125 135 138 140 144 148 148 145 144 141 136 134 133 136 139 137 131 123 119 117 116 113 108 104 101 96 84
233 239 245 248 247 204 156 154 160 148 149 145 131 119 121 123 123 134 130 139 136 127 122 132 142 148 153 158 158 156 155 150 141 138 140 146 148 139 127 120 120 119 118 116 112 108 107 104 81
248 253 261 266 262 181 168 153 147 162 164 158 149 123 128 137 133 134 133 140 129 126 127 140 146 155 162 168 168 165 164 156 148 145 152 161 162 154 142 131 122 119 120 121 120 123 140 173 220
249 268 273 273 256 183 164 150 150 92 311 223 167 130 141 141 139 137 137 130 128 131 136 143 152 156 162 168 168 167 167 163 158 161 172 174 172 167 159 149 134 135 139 142 145 162 195 219 236
243 255 266 274 259 187 169 172 160 141 191 268 149 113 142 144 144 147 140 138 138 131 136 141 148 154 160 157 158 165 170 172 169 177 185 186 187 172 173 159 150 158 165 168 177 195 214 224 233
233 246 253 279 305 220 185 195 181 174 170 224 154 118 135 146 149 156 152 153 149 143 147 150 156 163 161 153 156 168 175 175 185 182 183 192 189 180 174 163 170 178 182 184 203 214 226 230 227
229 242 264 299 305 321 304 244 207 203 184 201 156 128 145 154 158 166 160 158 153 153 167 159 163 159 166 159 167 177 176 170 187 172 177 181 190 185 168 174 181 192 192 197 211 216 226 215 31
235 247 260 284 305 298 278 281 241 220 209 194 135 129 170 179 169 170 159 155 146 155 176 161 154 155 170 159 169 170 151 160 150 152 177 176 191 180 187 191 189 195 200 191 196 217 154 104 243
239 250 263 273 284 278 275 275 270 221 196 190 162 153 175 200 182 171 151 140 139 150 168 142 145 142 127 103 192 146 125 145 138 160 183 169 116 274 57 60 46 15 46 60 5 33 36 13 321
247 247 248 260 266 264 267 269 264 241 194 193 203 163 173 194 186 164 143 139 137 136 142 138 150 136 128 141 193 100 130 119 147 160 151 116 74 55 40 41 39 29 46 41 12 21 9 353 10
258 256 250 243 257 263 266 259 255 243 215 197 203 177 171 179 187 163 148 143 140 144 141 137 160 142 147 170 163 159 149 145 128 113 104 87 79 76 70 81 67 26 35 40 32 11 7 4 348
252 249 252 247 240 246 254 255 255 237 223 205 205 195 182 174 180 160 143 137 143 151 145 166 172 151 164 180 166 158 122 104 89 97 90 80 78 63 66 79 57 17 37 43 33 24 8 2 347
248 242 247 249 239 232 238 246 256 267 213 201 216 207 191 181 182 153 142 142 145 144 157 184 170 152 168 163 134 104 92 96 99 99 96 86 76 70 82 79 49 29 50 49 34 31 4 344 337
237 239 239 243 246 235 233 233 232 252 208 212 224 225 201 185 179 146 143 146 143 144 173 183 153 154 160 147 135 122 113 106 98 95 94 92 78 60 76 91 65 47 60 61 57 351 320 300 283
252 263 269 267 245 246 232 233 246 255 222 217 226 233 223 190 168 141 146 149 151 159 185 187 171 155 149 144 146 140 129 119 111 102 92 83 81 74 64 80 92 79 70 43 321 27 340 321 318
241 256 267 277 286 284 265 234 239 263 269 245 226 236 246 195 156 143 149 152 158 169 186 193 160 148 149 143 137 134 127 114 103 95 95 95 90 81 79 60 46 56 6 264 43 61 356 330 338
248 254 263 271 278 275 275 263 249 254 265 265 240 229 244 227 169 154 156 158 162 168 172 181 158 160 148 132 126 113 103 111 117 121 112 109 103 92 79 64 50 26 345 67 48 51 25 350 324
252 254 261 268 272 271 271 271 253 243 245 247 244 234 231 237 195 162 157 160 160 152 157 159 147 134 127 129 133 139 148 144 134 134 133 131 100 80 73 58 62 29 357 66 36 66 13 342 321
249 255 258 259 259 263 266 271 270 265 255 252 248 227 225 231 202 161 153 150 132 127 134 134 124 120 124 121 132 138 120 116 124 121 134 143 120 100 80 70 61 22 21 69 57 65 16 332 5
247 258 259 262 264 259 256 259 265 261 262 261 256 220 219 216 158 144 139 133 119 120 128 126 117 108 100 97 94 98 105 119 124 127 142 176 142 127 106 103 84 41 52 57 52 79 298 60 9
225 241 246 241 240 249 249 250 256 256 262 269 286 68 118 139 131 133 136 138 130 124 127 124 120 112 103 98 93 96 104 114 123 137 126 335 124 119 104 92 79 55 108 203 106 311 256 249 220
220 224 242 258 264 272 278 273 268 254 255 291 72 91 97 111 121 128 135 138 134 126 127 128 123 118 114 106 99 102 134 163 125 72 95 94 71 97 127 137 145 72 315 328 87 304 279 252 237
241 234 237 252 266 277 282 288 290 261 226 205 142 108 110 116 122 128 132 132 129 126 126 124 121 120 116 104 99 93 70 73 94 97 60 93 91 116 90 79 136 214 273 284 272 259 280 261 251
228 246 250 246 261 274 280 281 291 320 252 191 117 113 120 126 131 133 134 129 123 119 111 114 114 108 106 113 116 106 94 93 107 103 72 67 79 81 82 269 256 255 259 256 255 265 268 272 272
223 230 242 259 262 267 276 287 5 356 31 97 121 124 141 143 139 137 135 128 125 120 112 107 102 97 93 91 92 104 112 122 132 119 119 107 83 123 253 315 318 308 294 280 271 271 278 286 295
251 239 236 240 250 261 270 281 29 14 10 14 147 144 146 139 132 128 130 133 135 128 120 112 111 114 115 115 111 111 124 150 164 130 110 119 121 307 319 315 310 304 298 295 300 317 338 344 339
Height
1515 1515 1516 1517 1512 1506 1494 1474 1463 1474 1482 1485 1486 1487 1492 1498 1504 1519 1520 1520 1518 1519 1522 1525 1528 1531 1533 1535 1537 1540 1542 1544 1546 1548 1550 1552 1554 1555 1557 1558 1559 1561 1562 1564 1565 1566 1567 1567 1567
1514 1517 1519 1516 1508 1506 1487 1465 1470 1481 1490 1489 1489 1490 1495 1503 1510 1515 1518 1521 1521 1521 1523 1526 1528 1531 1534 1536 1538 1541 1542 1544 1546 1548 1550 1552 1554 1556 1558 1559 1560 1561 1562 1564 1565 1566 1566 1566 1567
1513 1517 1518 1509 1504 1497 1480 1464 1473 1480 1489 1487 1489 1494 1501 1507 1512 1515 1518 1522 1523 1523 1525 1527 1529 1532 1535 1537 1539 1541 1543 1545 1547 1549 1551 1553 1555 1557 1558 1559 1560 1561 1562 1563 1564 1565 1565 1566 1566
1515 1516 1513 1505 1497 1480 1471 1468 1474 1480 1485 1487 1490 1497 1505 1509 1512 1515 1519 1522 1524 1524 1525 1527 1530 1532 1535 1537 1540 1542 1544 1546 1548 1550 1552 1554 1556 1557 1558 1559 1560 1561 1562 1563 1564 1564 1565 1565 1565
1515 1512 1507 1498 1484 1467 1465 1472 1475 1478 1483 1487 1491 1498 1507 1511 1512 1516 1520 1523 1525 1526 1525 1527 1529 1532 1535 1537 1540 1543 1545 1547 1549 1551 1553 1554 1556 1557 1558 1558 1559 1560 1562 1563 1563 1564 1564 1565 1566
1513 1505 1504 1495 1476 1464 1465 1471 1475 1479 1483 1486 1490 1496 1507 1511 1513 1517 1520 1523 1525 1526 1526 1528 1530 1533 1535 1538 1540 1543 1545 1547 1549 1551 1553 1554 1556 1557 1557 1558 1559 1560 1561 1562 1563 1564 1564 1565 1565
1510 1502 1497 1485 1472 1467 1467 1472 1477 1480 1483 1485 1488 1494 1505 1510 1513 1516 1520 1524 1526 1527 1527 1529 1531 1533 1535 1538 1540 1542 1545 1547 1550 1552 1553 1554 1556 1557 1558 1559 1559 1560 1561 1562 1563 1563 1564 1564 1564
1507 1502 1493 1480 1473 1469 1467 1472 1480 1485 1490 1487 1487 1490 1502 1508 1511 1516 1520 1524 1527 1529 1529 1529 1532 1534 1536 1538 1540 1542 1545 1548 1550 1552 1553 1554 1556 1557 1557 1558 1559 1560 1561 1562 1562 1563 1563 1564 1564
1505 1503 1495 1478 1469 1467 1466 1471 1479 1487 1494 1490 1488 1490 1497 1504 1509 1514 1519 1523 1527 1529 1530 1531 1532 1534 1536 1538 1541 1543 1545 1548 1550 1552 1553 1554 1555 1556 1557 1558 1559 1560 1560 1561 1562 1562 1563 1564 1564
1500 1498 1487 1472 1463 1464 1465 1469 1475 1482 1487 1492 1489 1493 1497 1502 1507 1511 1516 1521 1524 1528 1531 1532 1533 1535 1537 1539 1541 1543 1546 1548 1549 1551 1553 1554 1556 1556 1557 1558 1559 1559 1560 1560 1562 1561 1562 1563 1563
1492 1489 1479 1473 1469 1468 1468 1467 1471 1473 1480 1483 1486 1494 1498 1501 1505 1508 1513 1518 1521 1526 1530 1532 1533 1535 1536 1539 1540 1542 1545 1547 1549 1551 1553 1554 1555 1556 1557 1558 1558 1559 1559 1559 1561 1562 1562 1564 1565
1486 1481 1478 1474 1471 1474 1473 1469 1468 1470 1474 1479 1483 1493 1501 1502 1503 1505 1509 1515 1519 1523 1528 1531 1533 1536 1538 1540 1542 1544 1545 1547 1549 1550 1553 1554 1556 1557 1558 1558 1558 1559 1560 1561 1562 1563 1563 1563 1564
1481 1479 1478 1476 1476 1477 1475 1470 1468 1469 1473 1477 1480 1485 1495 1500 1500 1503 1507 1512 1517 1521 1526 1530 1532 1535 1538 1540 1542 1545 1545 1546 1547 1549 1552 1554 1555 1557 1559 1559 1560 1561 1561 1561 1562 1562 1562 1562 1564
1478 1476 1476 1477 1476 1476 1474 1471 1468 1466 1471 1476 1478 1482 1489 1494 1496 1500 1504 1509 1513 1518 1523 1527 1530 1532 1535 1538 1540 1542 1544 1546 1547 1549 1550 1553 1553 1554 1556 1557 1558 1559 1558 1559 1560 1560 1561 1562 1561
1475 1473 1473 1473 1475 1475 1474 1472 1466 1465 1468 1472 1476 1480 1484 1488 1495 1497 1502 1506 1509 1514 1518 1523 1527 1529 1532 1536 1538 1540 1543 1544 1546 1547 1548 1550 1552 1553 1555 1556 1556 1557 1557 1557 1558 1559 1560 1560 1559
1473 1475 1478 1472 1473 1473 1475 1475 1463 1463 1465 1469 1474 1478 1482 1486 1493 1496 1499 1503 1507 1511 1514 1518 1524 1526 1530 1534 1537 1539 1540 1541 1542 1543 1545 1547 1549 1551 1552 1552 1553 1555 1555 1555 1556 1556 1556 1556 1556
1476 1479 1478 1471 1464 1465 1467 1469 1462 1461 1462 1468 1473 1476 1480 1484 1489 1492 1496 1500 1505 1508 1510 1514 1519 1521 1526 1530 1533 1535 1535 1537 1539 1540 1542 1545 1546 1548 1548 1549 1550 1551 1552 1552 1552 1552 1553 1552 1551
1479 1474 1471 1467 1457 1455 1458 1459 1458 1459 1462 1467 1471 1474 1476 1480 1486 1489 1492 1498 1503 1506 1509 1511 1514 1517 1522 1526 1530 1532 1533 1534 1535 1538 1540 1542 1542 1544 1544 1545 1547 1547 1547 1547 1547 1547 1547 1546 1544
1468 1466 1462 1454 1446 1448 1451 1455 1455 1458 1460 1465 1468 1471 1473 1477 1482 1484 1489 1495 1501 1505 1509 1511 1512 1514 1518 1521 1525 1528 1530 1531 1533 1535 1536 1538 1539 1540 1541 1541 1542 1542 1543 1542 1542 1541 1541 1541 1540
1464 1467 1464 1455 1447 1448 1451 1454 1455 1458 1460 1461 1464 1467 1470 1473 1478 1481 1487 1493 1499 1504 1509 1511 1512 1513 1515 1518 1521 1525 1528 1529 1530 1531 1533 1535 1536 1537 1537 1538 1539 1538 1538 1537 1536 1536 1536 1536 1536
1460 1462 1462 1461 1454 1451 1456 1459 1456 1457 1459 1457 1458 1462 1467 1470 1472 1476 1483 1489 1497 1503 1508 1511 1511 1513 1515 1515 1518 1521 1524 1525 1528 1530 1531 1532 1533 1534 1534 1535 1535 1535 1535 1533 1533 1532 1532 1533 1533
1463 1457 1459 1462 1466 1466 1462 1471 1457 1452 1451 1450 1452 1455 1459 1465 1468 1471 1478 1486 1494 1500 1506 1509 1510 1511 1512 1513 1515 1519 1522 1524 1526 1528 1529 1530 1531 1532 1532 1532 1532 1532 1532 1530 1531 1528 1529 1530 1530
1457 1454 1456 1459 1464 1468 1465 1471 1460 1447 1445 1443 1441 1444 1451 1456 1462 1468 1475 1483 1490 1497 1502 1506 1508 1509 1511 1512 1514 1517 1519 1521 1525 1527 1529 1530 1530 1530 1530 1530 1530 1531 1530 1528 1528 1528 1528 1528 1528
1452 1456 1457 1459 1463 1476 1466 1469 1462 1445 1439 1436 1433 1437 1443 1448 1456 1465 1473 1481 1487 1494 1499 1503 1505 1508 1510 1511 1513 1514 1517 1519 1522 1525 1528 1529 1529 1528 1528 1528 1529 1530 1529 1527 1526 1526 1526 1526 1525
1452 1466 1478 1480 1479 1474 1454 1457 1450 1434 1430 1431 1432 1436 1439 1444 1454 1463 1471 1478 1486 1492 1497 1500 1503 1506 1508 1510 1511 1513 1516 1519 1521 1523 1525 1527 1528 1526 1526 1526 1527 1527 1526 1526 1525 1524 1523 1523 1524
1450 1460 1478 1485 1476 1459 1443 1446 1434 1424 1427 1431 1435 1440 1444 1451 1458 1465 1472 1478 1485 1491 1495 1499 1502 1505 1508 1510 1511 1514 1517 1519 1520 1521 1523 1525 1526 1524 1524 1525 1525 1525 1525 1525 1523 1522 1521 1521 1521
1450 1451 1451 1463 1465 1468 1457 1443 1430 1424 1426 1430 1437 1445 1450 1456 1461 1468 1474 1479 1486 1491 1495 1498 1501 1505 1508 1511 1513 1515 1516 1517 1518 1520 1522 1523 1524 1525 1524 1524 1524 1524 1523 1522 1521 1520 1519 1518 1517
1439 1444 1451 1459 1473 1477 1463 1450 1440 1427 1423 1428 1439 1450 1456 1460 1464 1469 1475 1480 1486 1491 1496 1499 1503 1506 1509 1511 1513 1514 1516 1517 1518 1519 1520 1521 1523 1523 1523 1524 1523 1522 1521 1520 1519 1518 1517 1516 1514
1438 1443 1446 1448 1451 1465 1469 1454 1430 1431 1431 1436 1442 1451 1460 1464 1468 1471 1476 1481 1487 1492 1496 1499 1502 1506 1509 1511 1513 1514 1515 1516 1518 1519 1519 1520 1521 1522 1522 1522 1522 1521 1520 1519 1517 1515 1513 1511 1509
1428 1433 1440 1456 1459 1456 1460 1454 1428 1431 1434 1436 1440 1452 1464 1470 1473 1476 1479 1484 1489 1493 1497 1500 1503 1505 1508 1510 1512 1513 1514 1516 1517 1518 1518 1519 1519 1520 1521 1520 1519 1519 1518 1516 1514 1511 1508 1506 1503